Huntsville, AL

2:36 PM CDT on July 26, 2017 (GMT -0500)
Huntsville International

Weather History for KHSV - July, 2013

Change the Weather History Date:

Monday, July 15, 2013

  Actual Average Record
Temperature  
Mean Temperature 82 °F 81 °F  
Max Temperature 89 °F 91 °F 103 °F (1966)
Min Temperature 74 °F 71 °F 53 °F (1967)
Degree Days  
Heating Degree Days 0 0  
Month to date heating degree days 0 0  
Since 1 June heating degree days 0 1  
Since 1 July heating degree days 0 0  
Cooling Degree Days 17 16  
Month to date cooling degree days 193 232  
Year to date cooling degree days 850 875  
Since 1 June cooling degree days 617 612  
Growing Degree Days 31 (Base 50)    
Moisture  
Dew Point 70 °F    
Average Humidity 70    
Maximum Humidity 87    
Minimum Humidity 52    
Precipitation  
Precipitation T in 0.13 in 2.74 in (1950)
Month to date precipitation 8.07 2.10  
Year to date precipitation 39.40 30.76  
Snow  
Snow 0.00 in - - ()
Month to date snowfall 0.0  
Since 1 June snowfall 0.0  
Since 1 July snowfall 0.0  
Snow Depth 0.00 in    
Sea Level Pressure  
Sea Level Pressure 30.19 in    
Wind  
Wind Speed 9 mph (ESE)    
Max Wind Speed 18 mph    
Max Gust Speed 24 mph    
Visibility 10 miles    
Events      
T = Trace of Precipitation, MM = Missing Value Source: NWS Daily Summary

Daily Weather History Graph

Daily Weather History Graph

Search for Another Location

Airport or City:

Trip Planner

Search our weather history database for the weather conditions in past years. The results will help you decide how hot, cold, wet, or windy it might be!

Date:

Astronomy

Jul. 15, 2013 Rise Set
Actual Time 5:45 AM CDT 8:00 PM CDT
Civil Twilight 5:16 AM CDT 8:29 PM CDT
Nautical Twilight 4:41 AM CDT 9:04 PM CDT
Astronomical Twilight 4:03 AM CDT 9:42 PM CDT
Moon 12:44 PM CDT (7/15) No Moon Set
Length of Visible Light 15h 12m
Length of Day
14h 14m
Waxing Crescent, 45% of the Moon is Illuminated
Jul 15
Waxing Crescent
Jul 15
First Quarter
Jul 22
Full
Jul 29
Last Quarter
Aug 6
New

Hourly Weather History & Observations

Time (CDT) Temp. Heat Index Dew Point Humidity Pressure Visibility Wind Dir Wind Speed Gust Speed Precip Events Conditions
12:53 AM 75.9 °F - 72.0 °F 87% 30.14 in 10.0 mi ESE 9.2 mph - N/A   Clear
1:53 AM 75.9 °F - 72.0 °F 87% 30.14 in 10.0 mi ESE 10.4 mph - N/A   Partly Cloudy
2:53 AM 75.0 °F - 71.1 °F 87% 30.14 in 10.0 mi ESE 8.1 mph - N/A   Clear
3:53 AM 75.0 °F - 71.1 °F 87% 30.14 in 10.0 mi ESE 11.5 mph - N/A   Partly Cloudy
4:53 AM 75.0 °F - 70.0 °F 84% 30.16 in 10.0 mi ESE 8.1 mph - N/A   Partly Cloudy
5:53 AM 73.9 °F - 70.0 °F 87% 30.19 in 10.0 mi ESE 8.1 mph - N/A   Scattered Clouds
6:53 AM 75.0 °F - 71.1 °F 87% 30.21 in 10.0 mi ESE 8.1 mph - N/A   Mostly Cloudy
7:53 AM 77.0 °F - 71.1 °F 82% 30.22 in 10.0 mi ESE 11.5 mph - N/A   Mostly Cloudy
8:53 AM 80.1 °F 83.2 °F 70.0 °F 71% 30.24 in 10.0 mi SE 12.7 mph - N/A   Mostly Cloudy
9:53 AM 81.0 °F 83.8 °F 68.0 °F 65% 30.25 in 10.0 mi SE 15.0 mph 20.7 mph N/A   Scattered Clouds
10:53 AM 82.9 °F 86.5 °F 69.1 °F 63% 30.25 in 10.0 mi SE 13.8 mph - N/A   Scattered Clouds
11:53 AM 84.0 °F 87.8 °F 69.1 °F 61% 30.25 in 10.0 mi ESE 12.7 mph 21.9 mph N/A   Mostly Cloudy
12:53 PM 84.9 °F 88.8 °F 69.1 °F 59% 30.23 in 10.0 mi ESE 16.1 mph 20.7 mph N/A   Mostly Cloudy
1:53 PM 84.0 °F 87.8 °F 69.1 °F 61% 30.22 in 10.0 mi ESE 8.1 mph - N/A   Mostly Cloudy
2:53 PM 84.9 °F 88.8 °F 69.1 °F 59% 30.19 in 10.0 mi SE 9.2 mph - N/A   Mostly Cloudy
3:53 PM 87.1 °F 91.3 °F 69.1 °F 55% 30.17 in 10.0 mi ESE 6.9 mph - N/A   Mostly Cloudy
4:53 PM 89.1 °F 93.7 °F 69.1 °F 52% 30.16 in 10.0 mi ESE 10.4 mph - N/A   Scattered Clouds
5:53 PM 88.0 °F 91.4 °F 68.0 °F 51% 30.16 in 10.0 mi East 9.2 mph - N/A   Scattered Clouds
6:53 PM 87.1 °F 90.6 °F 68.0 °F 53% 30.17 in 10.0 mi East 9.2 mph - N/A   Partly Cloudy
7:53 PM 82.9 °F 87.0 °F 70.0 °F 65% 30.19 in 10.0 mi ESE 4.6 mph - N/A   Partly Cloudy
8:53 PM 81.0 °F 84.1 °F 69.1 °F 67% 30.21 in 10.0 mi East 6.9 mph - N/A   Partly Cloudy
9:53 PM 80.1 °F 83.2 °F 70.0 °F 71% 30.22 in 10.0 mi East 5.8 mph - N/A   Mostly Cloudy
10:53 PM 79.0 °F - 72.0 °F 79% 30.24 in 10.0 mi ESE 6.9 mph - 0.00 in   Mostly Cloudy
11:53 PM 78.1 °F - 71.1 °F 79% 30.24 in 10.0 mi ESE 5.8 mph - N/A   Mostly Cloudy